Погода в Рудне

Россия / Смоленская область     54°56′49″N   31°05′36″E
темп.,
°C
ветер,
м/с
пор.,
м/с
влажн.,
%
обл.,
%
осадки,
мм/ч
давл.,
гПа
погр.,
м
12 апреля, пн
пн1200:00+8ююв387478 0.0 1029125
03:00+6ююв37793 0.0 102993
06:00+5юв36830 0.0 102993
09:00+9юв58660 0.0 1029331
12:00+13юв684853 0.0 10271045
15:00+14юв6736100 0.0 10251227
18:00+9юв6966100 0.0 1024498
21:00+7юв51293100 0.4 1024430
13 апреля, вт
вт1300:00+8ююв2795100 0.5 1024284
03:00+8ююв2296100 0.9 102246
06:00+8юв2295100 0.1 102246
09:00+10вюв2288100 0.1 1022151
12:00+13юв2378100 0.0 1021457
15:00+11ссв1189100 0.3 102112
18:00+13с2386100 0.0 1019100
21:00+11св3695100 0.4 1019119
14 апреля, ср
ср1400:00+11юв3793100 0.2 1018147
03:00+10ююв4995100 0.2 1017242
06:00+9ююв4996100 0.0 1017363
09:00+11ю588540 0.0 1017578
12:00+14ю566494 0.0 10171222
15:00+15ююз4560100 0.3 10161358
18:00+13юз1169100 0.3 1016279
21:00+11ссз1182100 0.4 101713
15 апреля, чт
чт1500:00+10св2495100 1.1 1016158
03:00+9ссв359863 6.8 1016130
06:00+8ссз2498100 0.1 1017206
09:00+9ссз3395100 0.1 1017236
12:00+11с4389100 0.0 1017462
15:00+11с4486100 0.1 1017506
18:00+9с5790100 0.0 1017365
21:00+7с51095100 0.0 1017359
16 апреля, пт
пт1600:00+7ссв5996100 0.7 1017338
03:00+6ссв51096100 1.3 1017370
06:00+6ссв51095100 0.0 1017474
09:00+7св61192100 0.0 1018496
12:00+9св71085100 0.0 1019617
15:00+9св71183100 0.0 1020828
18:00+7св81385100 0.0 1022758
21:00+6св8157486 0.0 1023695